Language: 


Des rapports , des résumés tant et plus, au choix de chacun....


Données statistiques de la station
Quotidien Rapport Janvier 6, 2018 Unités:  Anglais    Métrique   les deux
« Précédent Jour
Suivant Jour »
Quotidien Hebdomadaire Mensuel Annuel Actuel
  Haut: Bas: Moyen:
Température: TemperatureC °F 3.2 °F 5.6 °F
Pt de rosée: DewpointC °F 3.0 °F 5.6 °F
Humidité: Humidity % 93 % 97 %
Vitesse du vent: WindSpeedKMH mph 0.0 mph 6.1 mph
Rafales: WindSpeedGustKMH mph - -
Vent:- - ENE
Pression: PressurehPa in 999.9 in -
Précipitation: 0.3 in    
Historical Graphs
 
 
Données statistiques pour Janvier 6, 2018
Heure Température Point de rosée Pression Vent Vitesse du vent Refales Humidité Pluie (taux horaire)
TemperatureC °F DewpointC °F PressurehPa in Calm     Humidity % HourlyPrecipMM in
00:03 5.7 °F 5.0 °F 1000.9 in South 4.0 mph 9.3 mph 95 % 0.0 in
00:08 5.6 °F 5.0 °F 1000.9 in SSW 4.0 mph 9.0 mph 95 % 0.0 in
00:09 5.6 °F 5.0 °F 1000.9 in Calm   7.9 mph 95 % 0.0 in
00:14 5.5 °F 5.0 °F 1000.9 in Calm   9.0 mph 95 % 0.0 in
00:17 5.4 °F 5.0 °F 1000.9 in Calm   9.0 mph 95 % 0.0 in
00:22 5.3 °F 5.0 °F 1000.9 in South 9.3 mph 9.3 mph 95 % 0.0 in
00:28 5.2 °F 5.0 °F 1000.9 in Calm   9.7 mph 95 % 0.0 in
00:30 5.2 °F 5.0 °F 1000.9 in SW 6.4 mph 9.7 mph 95 % 0.0 in
00:33 5.2 °F 5.0 °F 1000.9 in SSW 6.1 mph 10.5 mph 96 % 0.0 in
00:38 5.1 °F 5.0 °F 1000.9 in SSW 2.6 mph 10.5 mph 96 % 0.0 in
00:43 5.1 °F 5.0 °F 999.9 in Calm   8.7 mph 96 % 0.0 in
00:48 5.0 °F 5.0 °F 999.9 in SSW 6.9 mph 7.6 mph 96 % 0.0 in
00:53 5.0 °F 5.0 °F 999.9 in Calm   9.7 mph 96 % 0.0 in
00:58 5.0 °F 5.0 °F 1000.9 in Calm   10.5 mph 96 % 0.0 in
01:03 5.0 °F 5.0 °F 1000.9 in SSW 6.9 mph 10.5 mph 96 % 0.0 in
01:04 5.0 °F 5.0 °F 1000.9 in SW 10.1 mph 10.1 mph 96 % 0.0 in
01:05 5.0 °F 5.0 °F 1000.9 in SSW 8.7 mph 10.1 mph 96 % 0.0 in
01:11 5.0 °F 5.0 °F 1000.9 in SSW 6.1 mph 10.1 mph 96 % 0.0 in
01:16 5.0 °F 5.0 °F 1000.9 in Calm   9.3 mph 96 % 0.0 in
01:18 5.0 °F 5.0 °F 1000.9 in SSW 6.9 mph 9.3 mph 96 % 0.0 in
01:23 5.0 °F 5.0 °F 1000.9 in Calm   9.3 mph 96 % 0.0 in
01:28 4.9 °F 5.0 °F 1000.9 in Calm   8.7 mph 96 % 0.0 in
01:31 4.8 °F 4.0 °F 1000.9 in Calm   6.9 mph 96 % 0.0 in
01:36 4.8 °F 4.0 °F 1000.9 in Calm   6.1 mph 96 % 0.0 in
01:41 4.7 °F 4.0 °F 1000.9 in Calm   6.1 mph 96 % 0.0 in
01:46 4.7 °F 4.0 °F 1000.9 in Calm   7.6 mph 96 % 0.0 in
01:51 4.7 °F 4.0 °F 1000.9 in Calm   7.6 mph 96 % 0.0 in
01:56 4.7 °F 4.0 °F 1000.9 in Calm   5.8 mph 96 % 0.0 in
02:00 4.6 °F 4.0 °F 1000.9 in Calm   4.7 mph 96 % 0.0 in
02:04 4.6 °F 4.0 °F 1000.9 in Calm   4.7 mph 96 % 0.0 in
02:07 4.6 °F 4.0 °F 1000.9 in Calm   4.7 mph 96 % 0.0 in
02:12 4.6 °F 4.0 °F 1000.9 in SSW 1.4 mph 4.0 mph 96 % 0.0 in
02:13 4.6 °F 4.0 °F 1000.9 in Calm   4.0 mph 96 % 0.0 in
02:14 4.6 °F 4.0 °F 1000.9 in Calm   4.0 mph 96 % 0.0 in
02:19 4.4 °F 4.0 °F 1000.9 in Calm   4.0 mph 96 % 0.0 in
02:24 4.4 °F 4.0 °F 1000.9 in Calm     96 % 0.0 in
02:26 4.3 °F 4.0 °F 1000.9 in Calm     96 % 0.0 in
02:31 4.2 °F 4.0 °F 1000.9 in Calm     96 % 0.0 in
02:34 4.1 °F 4.0 °F 1000.9 in Calm     96 % 0.0 in
02:39 4.1 °F 4.0 °F 1000.9 in Calm     96 % 0.0 in
02:40 4.1 °F 4.0 °F 1000.9 in Calm     96 % 0.0 in
02:46 4.0 °F 4.0 °F 1000.9 in Calm     96 % 0.0 in
02:47 4.0 °F 4.0 °F 1000.9 in Calm     96 % 0.0 in
02:52 3.9 °F 4.0 °F 1000.9 in Calm     96 % 0.0 in
02:54 3.8 °F 3.0 °F 1000.9 in Calm     96 % 0.0 in
02:59 3.8 °F 3.0 °F 1000.9 in Calm     97 % 0.0 in
03:04 3.7 °F 3.0 °F 1000.9 in Calm     97 % 0.0 in
03:09 3.5 °F 3.0 °F 1000.9 in Calm     97 % 0.0 in
03:14 3.4 °F 3.0 °F 1000.9 in Calm     96 % 0.0 in
03:20 3.2 °F 3.0 °F 1000.9 in Calm     96 % 0.0 in
03:25 3.3 °F 3.0 °F 1000.9 in Calm     97 % 0.0 in
03:30 3.4 °F 3.0 °F 1000.9 in Calm     97 % 0.0 in
03:34 3.5 °F 4.0 °F 1000.9 in Calm     98 % 0.0 in
03:39 3.7 °F 4.0 °F 1000.9 in Calm     98 % 0.0 in
03:44 3.7 °F 4.0 °F 1000.9 in Calm     98 % 0.0 in
03:49 3.8 °F 4.0 °F 1000.9 in Calm   1.8 mph 98 % 0.0 in
03:53 3.9 °F 4.0 °F 1000.9 in Calm   1.8 mph 98 % 0.0 in
03:58 3.9 °F 4.0 °F 1000.9 in Calm   1.4 mph 98 % 0.0 in
04:03 3.8 °F 4.0 °F 1000.9 in Calm     98 % 0.0 in
04:08 3.8 °F 4.0 °F 1000.9 in Calm     98 % 0.0 in
04:13 3.8 °F 4.0 °F 1000.9 in Calm   1.4 mph 98 % 0.0 in
04:16 3.8 °F 4.0 °F 1000.9 in Calm   1.4 mph 98 % 0.0 in
04:26 3.8 °F 4.0 °F 1000.9 in Calm     98 % 0.0 in
04:28 3.8 °F 4.0 °F 1000.9 in Calm     98 % 0.0 in
04:33 3.7 °F 4.0 °F 1000.9 in Calm     98 % 0.0 in
04:39 3.7 °F 4.0 °F 1000.9 in Calm     98 % 0.0 in
04:44 3.7 °F 4.0 °F 1001.9 in Calm     98 % 0.0 in
04:49 3.7 °F 4.0 °F 1001.9 in Calm     98 % 0.0 in
04:54 3.6 °F 4.0 °F 1001.9 in Calm     98 % 0.0 in
05:00 3.7 °F 4.0 °F 1000.9 in Calm   2.1 mph 98 % 0.0 in
05:05 3.7 °F 4.0 °F 1000.9 in Calm   2.1 mph 98 % 0.0 in
05:10 3.8 °F 4.0 °F 1000.9 in Calm   1.8 mph 98 % 0.0 in
05:15 3.9 °F 4.0 °F 1001.9 in Calm   4.0 mph 98 % 0.0 in
05:20 4.0 °F 4.0 °F 1001.9 in Calm   4.0 mph 98 % 0.0 in
05:25 4.0 °F 4.0 °F 1001.9 in Calm   4.3 mph 98 % 0.0 in
05:30 4.1 °F 4.0 °F 1001.9 in Calm   5.5 mph 98 % 0.0 in
05:35 4.2 °F 4.0 °F 1001.9 in Calm   5.5 mph 98 % 0.0 in
05:36 4.2 °F 4.0 °F 1001.9 in Calm   5.5 mph 98 % 0.0 in
05:41 4.3 °F 4.0 °F 1001.9 in SSE 1.4 mph 4.7 mph 98 % 0.0 in
05:46 4.3 °F 4.0 °F 1001.9 in SSE 4.7 mph 4.7 mph 98 % 0.0 in
05:51 4.4 °F 4.0 °F 1001.9 in Calm   4.7 mph 98 % 0.0 in
05:57 4.4 °F 4.0 °F 1001.9 in Calm     98 % 0.0 in
06:02 4.5 °F 5.0 °F 1001.9 in Calm     98 % 0.0 in
06:07 4.5 °F 5.0 °F 1001.9 in Calm     98 % 0.0 in
06:08 4.5 °F 5.0 °F 1001.9 in Calm     98 % 0.0 in
06:13 4.6 °F 5.0 °F 1001.9 in Calm     98 % 0.0 in
06:18 4.6 °F 5.0 °F 1001.9 in Calm     98 % 0.0 in
06:23 4.6 °F 5.0 °F 1001.9 in Calm     98 % 0.0 in
06:28 4.6 °F 5.0 °F 1001.9 in Calm     98 % 0.0 in
06:32 4.6 °F 5.0 °F 1001.9 in Calm     98 % 0.0 in
06:37 4.7 °F 5.0 °F 1001.9 in Calm     98 % 0.0 in
06:42 4.7 °F 5.0 °F 1001.9 in Calm     98 % 0.0 in
06:47 4.7 °F 5.0 °F 1001.9 in Calm     98 % 0.0 in
06:52 4.8 °F 5.0 °F 1001.9 in Calm     98 % 0.0 in
06:57 4.8 °F 5.0 °F 1001.9 in Calm     98 % 0.0 in
06:59 4.8 °F 5.0 °F 1001.9 in Calm     98 % 0.0 in
07:04 4.8 °F 5.0 °F 1001.9 in Calm     98 % 0.0 in
07:09 4.8 °F 5.0 °F 1001.9 in Calm     98 % 0.0 in
07:10 4.8 °F 5.0 °F 1001.9 in Calm     98 % 0.0 in
07:14 4.8 °F 5.0 °F 1001.9 in Calm     98 % 0.0 in
07:19 4.8 °F 5.0 °F 1001.9 in Calm     98 % 0.0 in
07:22 4.9 °F 5.0 °F 1001.9 in Calm     98 % 0.0 in
07:27 4.9 °F 5.0 °F 1002.9 in Calm     98 % 0.0 in
07:32 4.9 °F 5.0 °F 1002.9 in Calm     98 % 0.0 in
07:37 4.9 °F 5.0 °F 1002.9 in Calm     98 % 0.0 in
07:39 4.9 °F 5.0 °F 1002.9 in Calm     98 % 0.0 in
07:45 4.9 °F 5.0 °F 1002.9 in Calm     98 % 0.0 in
07:50 4.9 °F 5.0 °F 1002.9 in Calm     98 % 0.0 in
07:52 5.0 °F 5.0 °F 1002.9 in Calm     98 % 0.0 in
07:57 5.0 °F 5.0 °F 1002.9 in Calm     98 % 0.0 in
08:01 5.0 °F 5.0 °F 1002.9 in Calm     98 % 0.0 in
08:07 5.0 °F 5.0 °F 1002.9 in Calm     98 % 0.0 in
08:12 5.0 °F 5.0 °F 1002.9 in Calm     98 % 0.0 in
08:17 5.0 °F 5.0 °F 1002.9 in Calm     98 % 0.0 in
08:18 5.0 °F 5.0 °F 1002.9 in Calm     98 % 0.0 in
08:23 5.0 °F 5.0 °F 1002.9 in Calm     98 % 0.0 in
08:28 5.0 °F 5.0 °F 1002.9 in Calm     98 % 0.0 in
08:33 4.9 °F 5.0 °F 1002.9 in Calm     98 % 0.0 in
08:38 4.9 °F 5.0 °F 1002.9 in Calm     98 % 0.0 in
08:43 4.8 °F 5.0 °F 1002.9 in Calm     98 % 0.3 in
08:49 4.8 °F 5.0 °F 1002.9 in Calm     98 % 0.3 in
08:54 4.8 °F 5.0 °F 1002.9 in Calm     98 % 0.3 in
08:59 4.7 °F 5.0 °F 1003.9 in Calm     98 % 0.3 in
09:04 4.7 °F 5.0 °F 1003.9 in Calm     98 % 0.3 in
09:09 4.7 °F 5.0 °F 1003.9 in Calm     98 % 0.3 in
09:14 4.7 °F 5.0 °F 1005.0 in Calm     98 % 0.3 in
09:19 4.7 °F 5.0 °F 1005.0 in Calm     98 % 0.3 in
09:24 4.7 °F 5.0 °F 1005.0 in Calm     98 % 0.3 in
09:30 4.7 °F 5.0 °F 1005.0 in Calm   4.7 mph 98 % 0.3 in
09:35 4.7 °F 5.0 °F 1005.0 in Calm   4.7 mph 98 % 0.3 in
09:40 4.7 °F 5.0 °F 1005.0 in NNE 6.1 mph 6.1 mph 98 % 0.3 in
09:45 4.7 °F 5.0 °F 1005.0 in Calm   6.1 mph 98 % 0.0 in
09:55 4.8 °F 5.0 °F 1005.0 in Calm   5.0 mph 98 % 0.0 in
09:58 4.8 °F 5.0 °F 1005.0 in Calm   5.0 mph 98 % 0.0 in
10:03 4.8 °F 5.0 °F 1005.0 in Calm   5.0 mph 98 % 0.0 in
10:06 4.9 °F 5.0 °F 1005.0 in Calm     98 % 0.0 in
10:11 5.0 °F 5.0 °F 1005.0 in Calm     98 % 0.0 in
10:16 5.1 °F 5.0 °F 1005.0 in Calm     98 % 0.0 in
10:21 5.1 °F 5.0 °F 1005.0 in NE 2.1 mph 4.3 mph 98 % 0.0 in
10:26 5.2 °F 5.0 °F 1006.0 in Calm   5.5 mph 98 % 0.0 in
10:30 5.3 °F 6.0 °F 1006.0 in Calm   5.5 mph 98 % 0.0 in
10:35 5.4 °F 6.0 °F 1006.0 in Calm   4.3 mph 98 % 0.0 in
10:36 5.4 °F 6.0 °F 1006.0 in Calm   4.3 mph 98 % 0.0 in
10:41 5.5 °F 6.0 °F 1006.0 in NNE 1.8 mph 5.5 mph 98 % 0.0 in
10:46 5.6 °F 6.0 °F 1006.0 in Calm   5.5 mph 98 % 0.0 in
10:51 5.7 °F 6.0 °F 1006.0 in Calm   5.5 mph 98 % 0.0 in
10:52 5.7 °F 6.0 °F 1006.0 in NNE 4.3 mph 5.5 mph 98 % 0.0 in
10:57 5.7 °F 6.0 °F 1006.0 in NE 6.1 mph 7.9 mph 98 % 0.0 in
11:00 5.7 °F 6.0 °F 1006.0 in NNE 5.0 mph 7.9 mph 98 % 0.0 in
11:06 5.8 °F 6.0 °F 1006.0 in NE 5.8 mph 7.6 mph 98 % 0.0 in
11:07 5.8 °F 6.0 °F 1006.0 in NE 9.0 mph 9.0 mph 98 % 0.0 in
11:12 5.8 °F 6.0 °F 1006.0 in NE 6.4 mph 9.3 mph 98 % 0.0 in
11:17 5.8 °F 6.0 °F 1006.0 in Calm   9.3 mph 98 % 0.0 in
11:18 5.8 °F 6.0 °F 1006.0 in Calm   9.3 mph 98 % 0.0 in
11:24 5.9 °F 6.0 °F 1006.0 in NE 4.7 mph 7.9 mph 98 % 0.0 in
11:29 6.0 °F 6.0 °F 1006.0 in Calm   7.6 mph 98 % 0.0 in
11:34 6.1 °F 6.0 °F 1006.0 in NNE 6.9 mph 7.2 mph 98 % 0.0 in
11:39 6.1 °F 6.0 °F 1006.0 in East 5.8 mph 6.9 mph 98 % 0.0 in
11:44 6.2 °F 6.0 °F 1007.0 in NNE 6.9 mph 6.9 mph 98 % 0.0 in
11:49 6.3 °F 6.0 °F 1007.0 in NE 6.1 mph 6.9 mph 98 % 0.0 in
11:54 6.3 °F 6.0 °F 1007.0 in Calm   6.1 mph 98 % 0.0 in
11:56 6.4 °F 6.0 °F 1007.0 in Calm   6.1 mph 98 % 0.0 in
12:01 6.4 °F 6.0 °F 1007.0 in Calm   8.7 mph 98 % 0.0 in
12:07 6.4 °F 6.0 °F 1007.0 in NE 9.0 mph 9.0 mph 98 % 0.0 in
12:12 6.4 °F 6.0 °F 1007.0 in ENE 6.9 mph 9.7 mph 98 % 0.0 in
12:17 6.5 °F 7.0 °F 1007.0 in Calm   9.7 mph 98 % 0.0 in
12:22 6.5 °F 7.0 °F 1007.0 in East 8.7 mph 8.7 mph 98 % 0.0 in
12:27 6.6 °F 7.0 °F 1006.0 in NE 5.8 mph 9.0 mph 98 % 0.0 in
12:32 6.6 °F 7.0 °F 1006.0 in NE 7.9 mph 10.1 mph 98 % 0.0 in
12:37 6.7 °F 7.0 °F 1006.0 in NNE 6.9 mph 10.1 mph 98 % 0.0 in
12:42 6.7 °F 7.0 °F 1007.0 in NE 7.9 mph 10.1 mph 98 % 0.0 in
12:43 6.7 °F 7.0 °F 1007.0 in NNE 8.7 mph 10.1 mph 98 % 0.0 in
12:48 6.7 °F 7.0 °F 1007.0 in NE 9.7 mph 11.6 mph 98 % 0.0 in
12:54 6.6 °F 7.0 °F 1007.0 in NE 6.4 mph 11.6 mph 98 % 0.0 in
12:55 6.6 °F 7.0 °F 1007.0 in NNE 9.0 mph 11.6 mph 98 % 0.0 in
13:00 6.6 °F 7.0 °F 1006.0 in North 5.5 mph 10.1 mph 98 % 0.0 in
13:11 6.7 °F 7.0 °F 1007.0 in NE 6.9 mph 9.7 mph 98 % 0.0 in
13:16 6.7 °F 7.0 °F 1007.0 in Calm   9.0 mph 98 % 0.0 in
13:21 6.6 °F 7.0 °F 1007.0 in NNW 5.0 mph 11.6 mph 98 % 0.0 in
13:27 6.7 °F 7.0 °F 1007.0 in North 10.5 mph 11.6 mph 98 % 0.0 in
13:29 6.7 °F 7.0 °F 1007.0 in NNE 5.5 mph 11.6 mph 98 % 0.0 in
13:31 6.7 °F 7.0 °F 1007.0 in North 5.8 mph 11.9 mph 98 % 0.0 in
13:36 6.7 °F 7.0 °F 1007.0 in ENE 3.2 mph 11.9 mph 98 % 0.0 in
13:41 6.7 °F 7.0 °F 1007.0 in NE 2.1 mph 10.5 mph 98 % 0.0 in
13:44 6.7 °F 7.0 °F 1007.0 in NE 10.5 mph 10.5 mph 98 % 0.0 in
13:49 6.8 °F 7.0 °F 1007.0 in Calm   10.5 mph 98 % 0.0 in
13:54 6.8 °F 7.0 °F 1007.0 in NE 9.0 mph 12.6 mph 98 % 0.0 in
13:56 6.8 °F 7.0 °F 1007.0 in NNE 9.3 mph 12.6 mph 98 % 0.0 in
14:01 6.8 °F 7.0 °F 1007.0 in NE 8.7 mph 10.5 mph 98 % 0.0 in
14:02 6.8 °F 7.0 °F 1007.0 in NE 9.7 mph 10.5 mph 98 % 0.0 in
14:07 6.8 °F 7.0 °F 1007.0 in NNE 6.4 mph 10.5 mph 98 % 0.0 in
14:12 6.8 °F 7.0 °F 1007.0 in North 6.9 mph 10.5 mph 98 % 0.0 in
14:17 6.9 °F 7.0 °F 1007.0 in NNE 7.9 mph 10.1 mph 98 % 0.0 in
14:19 6.9 °F 7.0 °F 1007.0 in NNE 6.9 mph 10.1 mph 98 % 0.0 in
14:25 7.0 °F 7.0 °F 1007.0 in NE 9.7 mph 9.7 mph 98 % 0.0 in
14:30 7.0 °F 7.0 °F 1008.0 in NE 6.9 mph 11.9 mph 98 % 0.0 in
14:35 7.0 °F 7.0 °F 1008.0 in NNE 9.0 mph 11.9 mph 98 % 0.0 in
14:40 7.1 °F 7.0 °F 1008.0 in NE 2.6 mph 13.0 mph 98 % 0.0 in
14:45 7.1 °F 7.0 °F 1008.0 in NNE 8.7 mph 13.0 mph 98 % 0.0 in
14:51 7.1 °F 7.0 °F 1008.0 in NE 10.5 mph 11.6 mph 98 % 0.0 in
14:56 7.2 °F 7.0 °F 1008.0 in NNE 10.5 mph 13.7 mph 98 % 0.0 in
15:01 7.2 °F 7.0 °F 1008.0 in NNE 13.7 mph 14.0 mph 98 % 0.0 in
15:06 7.2 °F 7.0 °F 1008.0 in NE 10.5 mph 14.0 mph 98 % 0.0 in
15:11 7.3 °F 7.0 °F 1008.0 in ENE 9.7 mph 13.7 mph 98 % 0.0 in
15:15 7.3 °F 7.0 °F 1008.0 in NE 10.8 mph 12.6 mph 98 % 0.0 in
15:21 7.2 °F 7.0 °F 1008.0 in NE 10.1 mph 13.7 mph 98 % 0.0 in
15:26 7.2 °F 7.0 °F 1008.0 in ENE 11.1 mph 13.7 mph 98 % 0.0 in
15:31 7.2 °F 7.0 °F 1008.0 in NE 8.7 mph 12.6 mph 98 % 0.0 in
15:36 7.2 °F 7.0 °F 1008.0 in NE 9.3 mph 13.0 mph 98 % 0.0 in
15:46 7.2 °F 7.0 °F 1009.0 in NE 9.7 mph 13.7 mph 98 % 0.0 in
15:49 7.2 °F 7.0 °F 1009.0 in NNE 10.1 mph 12.2 mph 98 % 0.0 in
15:54 7.1 °F 7.0 °F 1009.0 in NE 10.5 mph 12.6 mph 98 % 0.0 in
15:59 7.1 °F 7.0 °F 1009.0 in ENE 10.5 mph 13.7 mph 98 % 0.0 in
16:01 7.1 °F 7.0 °F 1009.0 in NNE 10.1 mph 13.7 mph 98 % 0.0 in
16:06 7.1 °F 7.0 °F 1009.0 in ENE 7.9 mph 13.7 mph 98 % 0.0 in
16:11 7.1 °F 7.0 °F 1009.0 in NE 6.9 mph 15.4 mph 98 % 0.0 in
16:16 7.0 °F 7.0 °F 1009.0 in NE 2.1 mph 15.4 mph 98 % 0.0 in
16:21 7.0 °F 7.0 °F 1009.0 in NE 10.1 mph 13.7 mph 98 % 0.0 in
16:27 6.9 °F 7.0 °F 1009.0 in NE 9.0 mph 12.6 mph 98 % 0.0 in
16:32 6.9 °F 7.0 °F 1009.0 in NE 9.3 mph 12.6 mph 98 % 0.0 in
16:34 6.9 °F 7.0 °F 1009.0 in NNE 10.5 mph 12.2 mph 98 % 0.0 in
16:39 6.9 °F 7.0 °F 1009.0 in NNE 10.1 mph 14.0 mph 98 % 0.0 in
16:44 6.9 °F 7.0 °F 1009.0 in NNE 10.8 mph 14.0 mph 98 % 0.0 in
16:49 6.8 °F 7.0 °F 1009.0 in NNE 7.9 mph 13.7 mph 98 % 0.0 in
16:54 6.8 °F 7.0 °F 1009.0 in NNE 9.3 mph 11.9 mph 98 % 0.0 in
16:57 6.8 °F 7.0 °F 1009.0 in ENE 9.0 mph 11.9 mph 98 % 0.0 in
17:02 6.8 °F 7.0 °F 1009.0 in NE 10.1 mph 12.2 mph 98 % 0.0 in
17:07 6.8 °F 7.0 °F 1009.0 in NE 11.9 mph 12.6 mph 98 % 0.0 in
17:12 6.7 °F 7.0 °F 1009.0 in NE 12.2 mph 13.7 mph 98 % 0.0 in
17:14 6.7 °F 7.0 °F 1009.0 in NE 12.6 mph 13.7 mph 98 % 0.0 in
17:19 6.7 °F 7.0 °F 1009.0 in NE 6.4 mph 13.7 mph 98 % 0.0 in
17:21 6.7 °F 7.0 °F 1009.0 in NE 9.3 mph 13.7 mph 98 % 0.0 in
17:27 6.6 °F 7.0 °F 1010.0 in NNE 9.7 mph 11.9 mph 98 % 0.0 in
17:29 6.6 °F 7.0 °F 1010.0 in NNE 9.7 mph 11.9 mph 98 % 0.0 in
17:34 6.5 °F 7.0 °F 1010.0 in NE 11.9 mph 14.0 mph 98 % 0.0 in
17:39 6.5 °F 7.0 °F 1010.0 in NNE 11.6 mph 14.0 mph 98 % 0.0 in
17:44 6.5 °F 7.0 °F 1010.0 in ENE 9.7 mph 14.0 mph 98 % 0.0 in
17:49 6.5 °F 7.0 °F 1010.0 in NE 11.1 mph 14.0 mph 98 % 0.0 in
17:50 6.5 °F 7.0 °F 1010.0 in NE 10.5 mph 14.0 mph 98 % 0.0 in
17:55 6.5 °F 7.0 °F 1010.0 in NE 9.3 mph 14.0 mph 98 % 0.0 in
17:57 6.5 °F 7.0 °F 1010.0 in NE 11.9 mph 14.0 mph 98 % 0.0 in
18:03 6.5 °F 7.0 °F 1010.0 in NE 11.9 mph 14.0 mph 98 % 0.0 in
18:08 6.5 °F 7.0 °F 1010.0 in NE 5.8 mph 13.7 mph 98 % 0.0 in
18:13 6.5 °F 7.0 °F 1011.1 in NE 10.1 mph 13.7 mph 98 % 0.0 in
18:18 6.5 °F 7.0 °F 1011.1 in NE 8.7 mph 13.7 mph 98 % 0.0 in
18:24 6.5 °F 7.0 °F 1011.1 in NNE 13.0 mph 13.7 mph 98 % 0.0 in
18:29 6.5 °F 7.0 °F 1011.1 in NE 12.2 mph 13.7 mph 98 % 0.0 in
18:34 6.5 °F 7.0 °F 1011.1 in NE 12.6 mph 14.0 mph 98 % 0.0 in
18:36 6.5 °F 7.0 °F 1011.1 in NE 13.7 mph 14.3 mph 98 % 0.0 in
18:42 6.5 °F 7.0 °F 1011.1 in NE 10.8 mph 14.8 mph 98 % 0.0 in
18:47 6.4 °F 6.0 °F 1011.1 in NNE 13.7 mph 14.8 mph 98 % 0.0 in
18:52 6.4 °F 6.0 °F 1011.1 in NNE 11.9 mph 14.0 mph 98 % 0.0 in
18:54 6.4 °F 6.0 °F 1011.1 in NE 11.9 mph 14.0 mph 98 % 0.0 in
18:59 6.4 °F 6.0 °F 1011.1 in NE 12.2 mph 14.0 mph 98 % 0.0 in
19:02 6.4 °F 6.0 °F 1011.1 in NE 8.7 mph 14.0 mph 98 % 0.0 in
19:08 6.4 °F 6.0 °F 1011.1 in NE 14.0 mph 14.0 mph 98 % 0.0 in
19:13 6.4 °F 6.0 °F 1011.1 in NNE 10.5 mph 14.0 mph 98 % 0.0 in
19:18 6.4 °F 6.0 °F 1011.1 in NE 12.2 mph 13.7 mph 98 % 0.0 in
19:23 6.4 °F 6.0 °F 1011.1 in ENE 6.9 mph 15.8 mph 98 % 0.0 in
19:28 6.4 °F 6.0 °F 1011.1 in NNE 16.6 mph 16.6 mph 98 % 0.0 in
19:33 6.5 °F 7.0 °F 1011.1 in East 14.0 mph 16.6 mph 98 % 0.0 in
19:39 6.5 °F 7.0 °F 1011.1 in NE 15.4 mph 17.7 mph 98 % 0.0 in
19:44 6.5 °F 7.0 °F 1011.1 in NNE 10.1 mph 17.7 mph 98 % 0.0 in
19:49 6.5 °F 7.0 °F 1011.1 in NE 12.6 mph 16.9 mph 98 % 0.0 in
19:54 6.5 °F 7.0 °F 1011.1 in NNE 11.9 mph 16.9 mph 98 % 0.0 in
20:00 6.5 °F 7.0 °F 1012.1 in NE 14.0 mph 16.9 mph 98 % 0.0 in
20:05 6.5 °F 7.0 °F 1012.1 in NE 13.7 mph 14.8 mph 98 % 0.0 in
20:10 6.5 °F 7.0 °F 1012.1 in NE 15.4 mph 15.4 mph 98 % 0.0 in
20:15 6.5 °F 7.0 °F 1013.1 in NNE 13.7 mph 17.7 mph 98 % 0.0 in
20:20 6.5 °F 7.0 °F 1013.1 in NE 16.3 mph 17.7 mph 98 % 0.0 in
20:25 6.5 °F 7.0 °F 1013.1 in NE 13.7 mph 17.7 mph 98 % 0.0 in
20:26 6.5 °F 7.0 °F 1013.1 in NE 13.7 mph 17.7 mph 98 % 0.0 in
20:31 6.5 °F 7.0 °F 1013.1 in NNE 16.3 mph 25.9 mph 98 % 0.0 in
20:36 6.6 °F 7.0 °F 1013.1 in NE 17.2 mph 25.9 mph 98 % 0.0 in
20:41 6.6 °F 7.0 °F 1013.1 in NE 9.7 mph 20.6 mph 98 % 0.0 in
20:46 6.6 °F 7.0 °F 1013.1 in NNE 12.6 mph 20.9 mph 98 % 0.0 in
20:51 6.6 °F 6.0 °F 1013.1 in NE 11.9 mph 21.9 mph 97 % 0.0 in
20:55 6.6 °F 6.0 °F 1012.1 in NNE 16.6 mph 21.9 mph 97 % 0.0 in
21:00 6.6 °F 6.0 °F 1012.1 in NE 16.3 mph 23.8 mph 97 % 0.0 in
21:03 6.6 °F 6.0 °F 1012.1 in NE 17.7 mph 23.8 mph 97 % 0.0 in
21:08 6.6 °F 6.0 °F 1012.1 in NE 15.4 mph 20.1 mph 97 % 0.0 in
21:10 6.5 °F 6.0 °F 1012.1 in NE 14.0 mph 20.1 mph 97 % 0.0 in
21:12 6.5 °F 6.0 °F 1013.1 in North 17.7 mph 19.8 mph 97 % 0.0 in
21:18 6.5 °F 6.0 °F 1013.1 in NE 25.3 mph 25.3 mph 96 % 0.0 in
21:20 6.5 °F 6.0 °F 1013.1 in NE 23.8 mph 25.3 mph 96 % 0.0 in
21:25 6.5 °F 6.0 °F 1013.1 in ENE 14.0 mph 25.3 mph 96 % 0.0 in
21:29 6.4 °F 6.0 °F 1014.1 in ENE 14.0 mph 23.8 mph 95 % 0.0 in
21:34 6.4 °F 6.0 °F 1014.1 in NNE 20.6 mph 25.9 mph 95 % 0.0 in
21:38 6.4 °F 6.0 °F 1014.1 in NE 14.0 mph 25.9 mph 95 % 0.0 in
21:43 6.4 °F 6.0 °F 1014.1 in NE 11.1 mph 25.9 mph 95 % 0.0 in
21:49 6.4 °F 6.0 °F 1014.1 in NNE 17.2 mph 20.9 mph 95 % 0.0 in
21:54 6.3 °F 6.0 °F 1014.1 in NE 13.0 mph 19.8 mph 96 % 0.0 in
21:59 6.3 °F 6.0 °F 1014.1 in ENE 13.0 mph 19.8 mph 96 % 0.0 in
22:04 6.3 °F 6.0 °F 1014.1 in NE 12.2 mph 19.8 mph 96 % 0.0 in
22:09 6.3 °F 6.0 °F 1014.1 in NNE 16.9 mph 20.1 mph 96 % 0.0 in
22:14 6.3 °F 6.0 °F 1014.1 in NE 14.0 mph 21.2 mph 95 % 0.0 in
22:20 6.2 °F 6.0 °F 1014.1 in NE 24.5 mph 24.5 mph 95 % 0.0 in
22:25 6.1 °F 6.0 °F 1014.1 in ENE 16.6 mph 24.5 mph 95 % 0.0 in
22:31 6.1 °F 5.0 °F 1014.1 in NNE 17.7 mph 24.5 mph 94 % 0.0 in
22:33 6.1 °F 5.0 °F 1014.1 in NE 14.0 mph 24.5 mph 94 % 0.0 in
22:38 6.0 °F 5.0 °F 1014.1 in NE 12.6 mph 23.8 mph 94 % 0.0 in
22:43 6.0 °F 5.0 °F 1015.1 in NE 19.1 mph 19.8 mph 94 % 0.0 in
22:48 5.9 °F 5.0 °F 1015.1 in NE 16.6 mph 21.9 mph 94 % 0.0 in
22:54 5.9 °F 6.0 °F 1015.1 in NNE 16.6 mph 21.9 mph 95 % 0.0 in
22:59 5.9 °F 6.0 °F 1015.1 in NE 14.8 mph 23.3 mph 95 % 0.0 in
23:04 5.9 °F 6.0 °F 1015.1 in NE 14.0 mph 23.3 mph 95 % 0.0 in
23:09 5.9 °F 6.0 °F 1015.1 in NE 16.6 mph 21.6 mph 95 % 0.0 in
23:14 5.9 °F 6.0 °F 1016.1 in NE 14.3 mph 21.2 mph 95 % 0.0 in
23:19 5.9 °F 6.0 °F 1016.1 in North 15.8 mph 21.2 mph 95 % 0.0 in
23:24 5.8 °F 6.0 °F 1016.1 in NE 16.9 mph 21.2 mph 95 % 0.0 in
23:30 5.8 °F 6.0 °F 1015.1 in NNE 13.7 mph 21.2 mph 95 % 0.0 in
23:35 5.8 °F 5.0 °F 1015.1 in NNE 13.7 mph 23.8 mph 94 % 0.0 in
23:36 5.8 °F 5.0 °F 1015.1 in NNE 13.7 mph 23.8 mph 94 % 0.0 in
23:40 5.8 °F 5.0 °F 1015.1 in North 20.6 mph 27.7 mph 94 % 0.0 in
23:50 5.7 °F 5.0 °F 1015.1 in NNE 27.4 mph 27.4 mph 93 % 0.0 in
23:52 5.7 °F 5.0 °F 1015.1 in NE 17.7 mph 27.4 mph 93 % 0.0 in
23:57 5.7 °F 5.0 °F 1015.1 in NE 12.6 mph 27.4 mph 93 % 0.0 in
Le Gheer Warneton
Courtoisie de Weather Underground - 2.5 mb

Mise a jour : 25/02/2018 18:35:11
Généré par Cumulus 1.9.4 (1099)